Weather History for Norwood, MA

Change the Weather History Date:

Sunday, April 21, 2013

  Actual Average Record
Temperature  
Mean Temperature 43 °F -  
Max Temperature 55 °F 58 °F 79 °F (2012)
Min Temperature 33 °F 36 °F 28 °F (2006)
Degree Days  
Heating Degree Days 22    
Moisture  
Dew Point 21 °F    
Average Humidity 43    
Maximum Humidity 82    
Minimum Humidity 25    
Precipitation  
Precipitation 0.00 in - - ()
Sea Level Pressure  
Sea Level Pressure 30.50 in    
Wind  
Wind Speed 9 mph (NNW)    
Max Wind Speed 17 mph    
Max Gust Speed 24 mph    
Visibility 10 miles    
Events      
Averages and records for this station are not official NWS values.
T = Trace of Precipitation, MM = Missing Value Source: NWS Daily Summary

Daily Weather History Graph

Daily Weather History Graph

Search for Another Location

Airport:

Trip Planner

Search our weather history database for the weather conditions in past years. The results will help you decide how hot, cold, wet, or windy it might be!

Date:

Astronomy

Apr. 21, 2013 Rise Set
Actual Time 5:54 AM EDT 7:33 PM EDT
Civil Twilight 5:24 AM EDT 8:02 PM EDT
Nautical Twilight 4:48 AM EDT 8:38 PM EDT
Astronomical Twilight 4:10 AM EDT 9:17 PM EDT
Moon 3:10 PM EDT (4/21) 3:19 AM EDT (4/21)
Length of Visible Light 14h 38m
Length of Day
13h 38m
Waxing Gibbous, 79% of the Moon is Illuminated
Apr 21
Waxing Gibbous
Apr 25
Full
May 2
Last Quarter
May 9
New
May 18
First Quarter

Hourly Weather History & Observations

Time (EDT) Temp. Windchill Dew Point Humidity Pressure Visibility Wind Dir Wind Speed Gust Speed Precip Events Conditions
12:53 AM 43.0 °F 35.1 °F 19.0 °F 38% 30.25 in 10.0 mi WNW 17.3 mph 21.9 mph N/A   Clear
1:53 AM 39.9 °F 33.9 °F 18.0 °F 41% 30.29 in 10.0 mi WNW 9.2 mph 24.2 mph N/A   Clear
2:53 AM 37.9 °F 32.1 °F 19.0 °F 47% 30.31 in 10.0 mi WNW 8.1 mph - N/A   Clear
3:53 AM 37.0 °F 31.0 °F 18.0 °F 46% 30.34 in 10.0 mi NW 8.1 mph - N/A   Clear
4:53 AM 36.0 °F 30.3 °F 17.1 °F 46% 30.36 in 10.0 mi WNW 6.9 mph - N/A   Clear
5:53 AM 33.1 °F - 19.0 °F 56% 30.40 in 10.0 mi Calm Calm - N/A   Clear
6:53 AM 36.0 °F 31.1 °F 21.0 °F 55% 30.44 in 10.0 mi NW 5.8 mph - N/A   Clear
7:53 AM 39.9 °F 32.9 °F 19.9 °F 45% 30.48 in 10.0 mi NW 11.5 mph - N/A   Clear
8:53 AM 42.1 °F 34.2 °F 19.0 °F 40% 30.50 in 10.0 mi NW 16.1 mph 20.7 mph N/A   Clear
9:53 AM 44.1 °F 38.6 °F 19.9 °F 38% 30.51 in 10.0 mi North 10.4 mph 17.3 mph N/A   Clear
10:53 AM 46.0 °F 43.1 °F 19.9 °F 35% 30.53 in 10.0 mi Variable 5.8 mph 17.3 mph N/A   Clear
11:53 AM 46.9 °F - 19.0 °F 33% 30.54 in 10.0 mi North 5.8 mph 17.3 mph N/A   Clear
12:53 PM 50.0 °F - 21.0 °F 32% 30.53 in 10.0 mi Variable 6.9 mph - N/A   Clear
1:53 PM 51.1 °F - 19.9 °F 29% 30.53 in 10.0 mi NE 10.4 mph 17.3 mph N/A   Clear
2:53 PM 52.0 °F - 18.0 °F 26% 30.53 in 10.0 mi North 8.1 mph - N/A   Clear
3:53 PM 53.1 °F - 19.0 °F 26% 30.53 in 10.0 mi NNW 5.8 mph 16.1 mph N/A   Clear
4:53 PM 53.1 °F - 18.0 °F 25% 30.54 in 10.0 mi Variable 5.8 mph - N/A   Clear
5:53 PM 52.0 °F - 21.0 °F 30% 30.56 in 10.0 mi NNE 6.9 mph - N/A   Clear
6:53 PM 50.0 °F - 21.9 °F 33% 30.57 in 10.0 mi NE 6.9 mph - N/A   Clear
7:53 PM 44.1 °F 40.1 °F 23.0 °F 43% 30.61 in 10.0 mi ESE 6.9 mph - N/A   Clear
8:53 PM 42.1 °F 40.2 °F 24.1 °F 49% 30.65 in 10.0 mi SSE 3.5 mph - N/A   Clear
9:53 PM 39.9 °F 37.8 °F 28.0 °F 63% 30.67 in 10.0 mi ESE 3.5 mph - N/A   Clear
10:53 PM 35.1 °F - 30.0 °F 82% 30.68 in 10.0 mi Calm Calm - N/A   Clear
11:53 PM 34.0 °F - 28.9 °F 82% 30.69 in 10.0 mi Calm Calm - N/A   Clear